User: anonymous   Login
Location: Unspecified
(0.0000°N, 0.0000°E)
Time: 16:40:15
(UTC+01:00)
Language:

CZ-4B DEB - Orbit

View from above orbital plane
View from above orbital plane
View from above satellite
View from above satellite

Ground track
Ground track

The orbit data is extracted from the following two-line orbital elements,

1 33411U 08053D   16337.19438566  .00019386  00000-0  33824-3 0  9990
2 33411  97.4334  12.2610 0003454 324.9414  35.1610 15.50743770445737
Epoch (UTC): 02 December 2016 04:39:54
Eccentricity: 0.0003454
inclination: 97.4334°
perigee height: 412 km
apogee height: 417 km
right ascension of ascending node: 12.2610°
argument of perigee: 324.9414°
revolutions per day: 15.50743770
mean anomaly at epoch: 35.1610°
orbit number at epoch: 44573

The dashed part of the orbit path shows where the satellite is in the earth's shadow,  

DLR